date,time,SUV Intensity [MED/Hr],UV Index,Daily total [MED],Since Last [MED]
27/01/2022,00:03:57,0.000,0.0,0.0,0.0
27/01/2022,00:04:57,0.001,0.0,0.0,0.0
27/01/2022,00:05:57,0.000,0.0,0.0,0.0
27/01/2022,00:06:56,-0.000,0.0,0.0,0.0
27/01/2022,00:07:56,0.000,0.0,0.0,0.0
27/01/2022,00:09:05,-0.000,0.0,0.0,0.0
27/01/2022,00:09:57,0.000,0.0,0.0,0.0
27/01/2022,00:10:57,0.000,0.0,0.0,0.0
27/01/2022,00:12:04,0.000,0.0,0.0,0.0
27/01/2022,00:12:56,-0.000,0.0,0.0,0.0
27/01/2022,00:13:57,0.001,0.0,0.0,0.0
27/01/2022,00:15:06,0.000,0.0,0.0,0.0
27/01/2022,00:15:57,0.000,0.0,0.0,0.0
27/01/2022,00:16:56,-0.000,0.0,0.0,0.0
27/01/2022,00:17:56,0.000,0.0,0.0,0.0
27/01/2022,00:18:58,-0.000,0.0,0.0,0.0
27/01/2022,00:19:57,0.000,0.0,0.0,0.0
27/01/2022,00:20:56,0.000,0.0,0.0,0.0
27/01/2022,00:21:57,-0.000,0.0,0.0,0.0
27/01/2022,00:22:56,0.000,0.0,0.0,0.0
27/01/2022,00:23:57,0.000,0.0,0.0,0.0
27/01/2022,00:25:05,0.000,0.0,0.0,0.0
27/01/2022,00:26:05,0.000,0.0,0.0,0.0
27/01/2022,00:26:57,-0.000,0.0,0.0,0.0
27/01/2022,00:27:58,0.000,0.0,0.0,0.0
27/01/2022,00:28:57,0.000,0.0,0.0,0.0
27/01/2022,00:29:57,-0.000,0.0,0.0,0.0
27/01/2022,00:30:58,0.000,0.0,0.0,0.0
27/01/2022,00:31:57,0.000,0.0,0.0,0.0
27/01/2022,00:32:57,-0.000,0.0,0.0,0.0
27/01/2022,00:33:57,-0.000,0.0,0.0,0.0
27/01/2022,00:34:56,-0.000,0.0,0.0,0.0
27/01/2022,00:35:57,0.000,0.0,0.0,0.0
27/01/2022,00:36:56,-0.000,0.0,0.0,0.0
27/01/2022,00:37:57,-0.000,0.0,0.0,0.0
27/01/2022,00:38:56,-0.000,0.0,0.0,0.0
27/01/2022,00:39:57,0.000,0.0,0.0,0.0
27/01/2022,00:40:57,0.000,0.0,0.0,0.0
27/01/2022,00:41:57,0.000,0.0,0.0,0.0
27/01/2022,00:43:04,0.000,0.0,0.0,0.0
27/01/2022,00:43:57,0.000,0.0,0.0,0.0
27/01/2022,00:44:57,0.000,0.0,0.0,0.0
27/01/2022,00:45:57,-0.000,0.0,0.0,0.0
27/01/2022,00:46:57,0.000,0.0,0.0,0.0
27/01/2022,00:47:57,0.000,0.0,0.0,0.0
27/01/2022,00:48:57,0.000,0.0,0.0,0.0
27/01/2022,00:49:57,0.000,0.0,0.0,0.0
27/01/2022,00:50:57,-0.000,0.0,0.0,0.0
27/01/2022,00:51:57,0.000,0.0,0.0,0.0
27/01/2022,00:53:06,0.000,0.0,0.0,0.0
27/01/2022,00:54:59,0.000,0.0,0.0,0.0
27/01/2022,00:55:57,-0.000,0.0,0.0,0.0
27/01/2022,00:56:57,-0.000,0.0,0.0,0.0
27/01/2022,00:57:57,0.000,0.0,0.0,0.0
27/01/2022,00:58:57,0.000,0.0,0.0,0.0
27/01/2022,00:59:57,0.000,0.0,0.0,0.0
27/01/2022,01:00:51,0.000,0.0,0.0,0.0
27/01/2022,01:01:57,-0.000,0.0,0.0,0.0
27/01/2022,01:03:06,0.000,0.0,0.0,0.0
27/01/2022,01:04:04,-0.000,0.0,0.0,0.0
27/01/2022,01:04:57,-0.000,0.0,0.0,0.0
27/01/2022,01:05:58,-0.000,0.0,0.0,0.0
27/01/2022,01:06:56,-0.000,0.0,0.0,0.0
27/01/2022,01:08:13,0.000,0.0,0.0,0.0
27/01/2022,01:09:58,-0.000,0.0,0.0,0.0
27/01/2022,01:11:07,-0.000,0.0,0.0,0.0
27/01/2022,01:12:57,-0.000,0.0,0.0,0.0
27/01/2022,01:13:56,0.000,0.0,0.0,0.0
27/01/2022,01:14:58,-0.000,0.0,0.0,0.0
27/01/2022,01:15:56,-0.000,0.0,0.0,0.0
27/01/2022,01:16:57,-0.000,0.0,0.0,0.0
27/01/2022,01:17:57,-0.000,0.0,0.0,0.0
27/01/2022,01:18:57,-0.000,0.0,0.0,0.0
27/01/2022,01:19:57,-0.000,0.0,0.0,0.0
27/01/2022,01:20:59,-0.000,0.0,0.0,0.0
27/01/2022,01:21:56,-0.000,0.0,0.0,0.0
27/01/2022,01:23:05,-0.000,0.0,0.0,0.0
27/01/2022,01:24:05,-0.000,0.0,0.0,0.0
27/01/2022,01:24:57,-0.000,0.0,0.0,0.0
27/01/2022,01:25:57,-0.000,0.0,0.0,0.0
27/01/2022,01:26:57,-0.000,0.0,0.0,0.0
27/01/2022,01:27:56,-0.000,0.0,0.0,0.0
27/01/2022,01:28:56,-0.000,0.0,0.0,0.0
27/01/2022,01:29:57,0.000,0.0,0.0,0.0
27/01/2022,01:30:56,-0.000,0.0,0.0,0.0
27/01/2022,01:31:57,-0.000,0.0,0.0,0.0
27/01/2022,01:32:57,0.000,0.0,0.0,0.0
27/01/2022,01:33:57,-0.000,0.0,0.0,0.0
27/01/2022,01:34:57,-0.000,0.0,0.0,0.0
27/01/2022,01:35:57,-0.000,0.0,0.0,0.0
27/01/2022,01:37:05,-0.000,0.0,0.0,0.0
27/01/2022,01:37:57,-0.000,0.0,0.0,0.0
27/01/2022,01:38:57,-0.000,0.0,0.0,0.0
27/01/2022,01:39:58,-0.000,0.0,0.0,0.0
27/01/2022,01:40:56,-0.000,0.0,0.0,0.0
27/01/2022,01:41:57,-0.000,0.0,0.0,0.0
27/01/2022,01:42:58,-0.000,0.0,0.0,0.0
27/01/2022,01:44:06,-0.000,0.0,0.0,0.0
27/01/2022,01:45:05,-0.000,0.0,0.0,0.0
27/01/2022,01:45:57,0.000,0.0,0.0,0.0
27/01/2022,01:46:57,-0.000,0.0,0.0,0.0
27/01/2022,01:47:58,-0.000,0.0,0.0,0.0
27/01/2022,01:48:57,-0.000,0.0,0.0,0.0
27/01/2022,01:49:58,-0.000,0.0,0.0,0.0
27/01/2022,01:50:48,-0.000,0.0,0.0,0.0
27/01/2022,01:51:58,-0.000,0.0,0.0,0.0
27/01/2022,01:52:57,-0.000,0.0,0.0,0.0
27/01/2022,01:53:57,-0.000,0.0,0.0,0.0
27/01/2022,01:54:57,-0.000,0.0,0.0,0.0
27/01/2022,01:55:57,-0.000,0.0,0.0,0.0
27/01/2022,01:56:57,-0.000,0.0,0.0,0.0
27/01/2022,01:58:05,-0.000,0.0,0.0,0.0
27/01/2022,01:58:56,-0.000,0.0,0.0,0.0
27/01/2022,01:59:56,-0.000,0.0,0.0,0.0
27/01/2022,02:00:56,-0.000,0.0,0.0,0.0
27/01/2022,02:01:57,-0.000,0.0,0.0,0.0
27/01/2022,02:02:56,-0.000,0.0,0.0,0.0
27/01/2022,02:03:57,-0.000,0.0,0.0,0.0
27/01/2022,02:04:48,-0.000,0.0,0.0,0.0
27/01/2022,02:05:58,-0.000,0.0,0.0,0.0
27/01/2022,02:06:57,-0.000,0.0,0.0,0.0
27/01/2022,02:08:05,-0.000,0.0,0.0,0.0
27/01/2022,02:09:05,-0.000,0.0,0.0,0.0
27/01/2022,02:09:57,-0.000,0.0,0.0,0.0
27/01/2022,02:10:57,-0.000,0.0,0.0,0.0
27/01/2022,02:11:58,-0.000,0.0,0.0,0.0
27/01/2022,02:12:57,-0.000,0.0,0.0,0.0
27/01/2022,02:13:57,-0.000,0.0,0.0,0.0
27/01/2022,02:14:58,-0.000,0.0,0.0,0.0
27/01/2022,02:16:05,-0.000,0.0,0.0,0.0
27/01/2022,02:16:57,-0.000,0.0,0.0,0.0
27/01/2022,02:17:57,-0.000,0.0,0.0,0.0
27/01/2022,02:19:06,-0.000,0.0,0.0,0.0
27/01/2022,02:19:55,-0.000,0.0,0.0,0.0
27/01/2022,02:20:57,-0.000,0.0,0.0,0.0
27/01/2022,02:21:58,-0.000,0.0,0.0,0.0
27/01/2022,02:22:56,-0.000,0.0,0.0,0.0
27/01/2022,02:23:57,-0.000,0.0,0.0,0.0
27/01/2022,02:24:56,-0.000,0.0,0.0,0.0
27/01/2022,02:25:57,-0.000,0.0,0.0,0.0
27/01/2022,02:26:58,-0.000,0.0,0.0,0.0
27/01/2022,02:27:57,-0.000,0.0,0.0,0.0
27/01/2022,02:28:56,-0.000,0.0,0.0,0.0
27/01/2022,02:29:57,-0.000,0.0,0.0,0.0
27/01/2022,02:30:58,-0.000,0.0,0.0,0.0
27/01/2022,02:31:58,-0.000,0.0,0.0,0.0
27/01/2022,02:32:56,-0.000,0.0,0.0,0.0
27/01/2022,02:33:57,-0.000,0.0,0.0,0.0
27/01/2022,02:34:57,-0.000,0.0,0.0,0.0
27/01/2022,02:35:57,-0.000,0.0,0.0,0.0
27/01/2022,02:36:57,-0.000,0.0,0.0,0.0
27/01/2022,02:37:57,-0.000,0.0,0.0,0.0
27/01/2022,02:38:57,-0.000,0.0,0.0,0.0
27/01/2022,02:40:05,-0.000,0.0,0.0,0.0
27/01/2022,02:40:57,-0.000,0.0,0.0,0.0
27/01/2022,02:41:57,-0.000,0.0,0.0,0.0
27/01/2022,02:43:06,-0.000,0.0,0.0,0.0
27/01/2022,02:43:56,-0.000,0.0,0.0,0.0
27/01/2022,02:44:58,-0.000,0.0,0.0,0.0
27/01/2022,02:45:57,-0.000,0.0,0.0,0.0
27/01/2022,02:46:57,-0.000,0.0,0.0,0.0
27/01/2022,02:47:57,-0.000,0.0,0.0,0.0
27/01/2022,02:48:57,-0.000,0.0,0.0,0.0
27/01/2022,02:49:56,-0.000,0.0,0.0,0.0
27/01/2022,02:50:56,-0.000,0.0,0.0,0.0
27/01/2022,02:51:57,-0.000,0.0,0.0,0.0
27/01/2022,02:53:05,-0.000,0.0,0.0,0.0
27/01/2022,02:53:56,-0.000,0.0,0.0,0.0
27/01/2022,02:54:57,-0.000,0.0,0.0,0.0
27/01/2022,02:55:57,-0.000,0.0,0.0,0.0
27/01/2022,02:56:57,-0.000,0.0,0.0,0.0
27/01/2022,02:57:57,-0.000,0.0,0.0,0.0
27/01/2022,02:58:56,-0.000,0.0,0.0,0.0
27/01/2022,02:59:57,-0.000,0.0,0.0,0.0
27/01/2022,03:00:57,-0.000,0.0,0.0,0.0
27/01/2022,03:01:56,-0.000,0.0,0.0,0.0
27/01/2022,03:02:56,-0.000,0.0,0.0,0.0
27/01/2022,03:03:57,-0.000,0.0,0.0,0.0
27/01/2022,03:04:57,-0.000,0.0,0.0,0.0
27/01/2022,03:05:57,-0.000,0.0,0.0,0.0
27/01/2022,03:07:06,-0.000,0.0,0.0,0.0
27/01/2022,03:07:56,-0.000,0.0,0.0,0.0
27/01/2022,03:08:57,-0.000,0.0,0.0,0.0
27/01/2022,03:09:56,-0.000,0.0,0.0,0.0
27/01/2022,03:10:57,-0.000,0.0,0.0,0.0
27/01/2022,03:11:57,-0.000,0.0,0.0,0.0
27/01/2022,03:12:57,-0.000,0.0,0.0,0.0
27/01/2022,03:14:49,-0.000,0.0,0.0,0.0
27/01/2022,03:15:57,-0.000,0.0,0.0,0.0
27/01/2022,03:16:58,-0.000,0.0,0.0,0.0
27/01/2022,03:17:57,-0.000,0.0,0.0,0.0
27/01/2022,03:18:57,-0.001,0.0,0.0,0.0
27/01/2022,03:19:57,-0.000,0.0,0.0,0.0
27/01/2022,03:20:57,-0.000,0.0,0.0,0.0
27/01/2022,03:21:57,-0.000,0.0,0.0,0.0
27/01/2022,03:22:57,-0.000,0.0,0.0,0.0
27/01/2022,03:24:05,-0.000,0.0,0.0,0.0
27/01/2022,03:25:06,-0.000,0.0,0.0,0.0
27/01/2022,03:25:56,-0.000,0.0,0.0,0.0
27/01/2022,03:26:58,-0.000,0.0,0.0,0.0
27/01/2022,03:27:57,-0.000,0.0,0.0,0.0
27/01/2022,03:28:57,-0.000,0.0,0.0,0.0
27/01/2022,03:29:57,-0.000,0.0,0.0,0.0
27/01/2022,03:30:57,-0.000,0.0,0.0,0.0
27/01/2022,03:32:13,-0.000,0.0,0.0,0.0
27/01/2022,03:33:58,-0.000,0.0,0.0,0.0
27/01/2022,03:35:06,-0.000,0.0,0.0,0.0
27/01/2022,03:35:55,-0.000,0.0,0.0,0.0
27/01/2022,03:36:57,-0.000,0.0,0.0,0.0
27/01/2022,03:38:05,-0.000,0.0,0.0,0.0
27/01/2022,03:38:55,-0.000,0.0,0.0,0.0
27/01/2022,03:39:57,-0.000,0.0,0.0,0.0
27/01/2022,03:40:57,-0.001,0.0,0.0,0.0
27/01/2022,03:41:57,-0.000,0.0,0.0,0.0
27/01/2022,03:42:57,-0.000,0.0,0.0,0.0
27/01/2022,03:43:57,-0.000,0.0,0.0,0.0
27/01/2022,03:44:57,-0.000,0.0,0.0,0.0
27/01/2022,03:45:57,-0.000,0.0,0.0,0.0
27/01/2022,03:46:57,-0.000,0.0,0.0,0.0
27/01/2022,03:48:05,-0.000,0.0,0.0,0.0
27/01/2022,03:49:05,-0.000,0.0,0.0,0.0
27/01/2022,03:49:57,-0.000,0.0,0.0,0.0
27/01/2022,03:50:58,-0.000,0.0,0.0,0.0
27/01/2022,03:51:57,-0.000,0.0,0.0,0.0
27/01/2022,03:52:56,-0.000,0.0,0.0,0.0
27/01/2022,03:53:57,-0.000,0.0,0.0,0.0
27/01/2022,03:54:58,-0.000,0.0,0.0,0.0
27/01/2022,03:56:05,-0.000,0.0,0.0,0.0
27/01/2022,03:56:57,-0.000,0.0,0.0,0.0
27/01/2022,03:57:57,-0.001,0.0,0.0,0.0
27/01/2022,03:59:05,-0.000,0.0,0.0,0.0
27/01/2022,03:59:57,-0.001,0.0,0.0,0.0
27/01/2022,04:00:58,-0.000,0.0,0.0,0.0
27/01/2022,04:01:57,-0.001,0.0,0.0,0.0
27/01/2022,04:02:57,-0.001,0.0,0.0,0.0
27/01/2022,04:03:57,-0.001,0.0,0.0,0.0
27/01/2022,04:04:57,-0.000,0.0,0.0,0.0
27/01/2022,04:05:57,-0.000,0.0,0.0,0.0
27/01/2022,04:06:58,-0.001,0.0,0.0,0.0
27/01/2022,04:07:57,-0.000,0.0,0.0,0.0
27/01/2022,04:08:57,-0.000,0.0,0.0,0.0
27/01/2022,04:09:57,-0.000,0.0,0.0,0.0
27/01/2022,04:10:57,-0.001,0.0,0.0,0.0
27/01/2022,04:11:57,-0.001,0.0,0.0,0.0
27/01/2022,04:13:05,-0.002,0.0,0.0,0.0
27/01/2022,04:13:57,-0.001,0.0,0.0,0.0
27/01/2022,04:14:57,-0.001,0.0,0.0,0.0
27/01/2022,04:15:57,-0.001,0.0,0.0,0.0
27/01/2022,04:16:57,-0.001,0.0,0.0,0.0
27/01/2022,04:17:58,-0.000,0.0,0.0,0.0
27/01/2022,04:18:57,-0.001,0.0,0.0,0.0
27/01/2022,04:19:58,-0.001,0.0,0.0,0.0
27/01/2022,04:20:57,-0.001,0.0,0.0,0.0
27/01/2022,04:21:58,-0.001,0.0,0.0,0.0
27/01/2022,04:23:05,-0.001,0.0,0.0,0.0
27/01/2022,04:24:05,-0.001,0.0,0.0,0.0
27/01/2022,04:24:57,-0.001,0.0,0.0,0.0
27/01/2022,04:25:58,-0.000,0.0,0.0,0.0
27/01/2022,04:26:57,-0.000,0.0,0.0,0.0
27/01/2022,04:27:57,-0.001,0.0,0.0,0.0
27/01/2022,04:28:57,-0.001,0.0,0.0,0.0
27/01/2022,04:29:58,-0.001,0.0,0.0,0.0
27/01/2022,04:31:06,-0.001,0.0,0.0,0.0
27/01/2022,04:31:59,-0.001,0.0,0.0,0.0
27/01/2022,04:32:57,-0.001,0.0,0.0,0.0
27/01/2022,04:33:58,-0.001,0.0,0.0,0.0
27/01/2022,04:34:57,-0.001,0.0,0.0,0.0
27/01/2022,04:35:56,-0.001,0.0,0.0,0.0
27/01/2022,04:36:58,-0.001,0.0,0.0,0.0
27/01/2022,04:37:57,-0.000,0.0,0.0,0.0
27/01/2022,04:38:57,-0.001,0.0,0.0,0.0
27/01/2022,04:39:57,-0.000,0.0,0.0,0.0
27/01/2022,04:41:06,-0.001,0.0,0.0,0.0
27/01/2022,04:41:57,-0.001,0.0,0.0,0.0
27/01/2022,04:42:57,-0.000,0.0,0.0,0.0
27/01/2022,04:43:58,-0.001,0.0,0.0,0.0
27/01/2022,04:45:06,-0.001,0.0,0.0,0.0
27/01/2022,04:45:57,-0.001,0.0,0.0,0.0
27/01/2022,04:46:57,-0.000,0.0,0.0,0.0
27/01/2022,04:47:56,-0.001,0.0,0.0,0.0
27/01/2022,04:48:57,-0.001,0.0,0.0,0.0
27/01/2022,04:49:57,-0.001,0.0,0.0,0.0
27/01/2022,04:50:57,-0.001,0.0,0.0,0.0
27/01/2022,04:51:57,-0.000,0.0,0.0,0.0
27/01/2022,04:52:57,-0.001,0.0,0.0,0.0
27/01/2022,04:53:57,-0.001,0.0,0.0,0.0
27/01/2022,04:55:06,-0.001,0.0,0.0,0.0
27/01/2022,04:55:56,-0.001,0.0,0.0,0.0
27/01/2022,04:56:57,-0.001,0.0,0.0,0.0
27/01/2022,04:57:58,-0.001,0.0,0.0,0.0
27/01/2022,04:58:57,-0.001,0.0,0.0,0.0
27/01/2022,04:59:56,-0.001,0.0,0.0,0.0
27/01/2022,05:00:57,-0.001,0.0,0.0,0.0
27/01/2022,05:01:58,-0.001,0.0,0.0,0.0
27/01/2022,05:02:58,-0.002,0.0,0.0,0.0
27/01/2022,05:03:57,-0.001,0.0,0.0,0.0
27/01/2022,05:04:58,-0.000,0.0,0.0,0.0
27/01/2022,05:05:58,-0.002,0.0,0.0,0.0
27/01/2022,05:06:58,-0.001,0.0,0.0,0.0
27/01/2022,05:07:57,-0.001,0.0,0.0,0.0
27/01/2022,05:08:58,-0.001,0.0,0.0,0.0
27/01/2022,05:09:57,-0.000,0.0,0.0,0.0
27/01/2022,05:10:57,-0.001,0.0,0.0,0.0
27/01/2022,05:11:58,-0.001,0.0,0.0,0.0
27/01/2022,05:13:05,-0.001,0.0,0.0,0.0
27/01/2022,05:13:57,-0.001,0.0,0.0,0.0
27/01/2022,05:14:57,-0.001,0.0,0.0,0.0
27/01/2022,05:16:06,-0.001,0.0,0.0,0.0
27/01/2022,05:16:56,-0.001,0.0,0.0,0.0
27/01/2022,05:17:57,-0.001,0.0,0.0,0.0
27/01/2022,05:18:57,-0.001,0.0,0.0,0.0
27/01/2022,05:19:57,-0.002,0.0,0.0,0.0
27/01/2022,05:20:58,-0.001,0.0,0.0,0.0
27/01/2022,05:21:57,-0.001,0.0,0.0,0.0
27/01/2022,05:22:57,-0.000,0.0,0.0,0.0
27/01/2022,05:23:58,-0.001,0.0,0.0,0.0
27/01/2022,05:24:58,-0.001,0.0,0.0,0.0
27/01/2022,05:25:58,-0.001,0.0,0.0,0.0
27/01/2022,05:26:57,-0.000,0.0,0.0,0.0
27/01/2022,05:27:57,-0.001,0.0,0.0,0.0
27/01/2022,05:28:57,-0.001,0.0,0.0,0.0
27/01/2022,05:29:57,-0.002,0.0,0.0,0.0
27/01/2022,05:30:58,-0.000,0.0,0.0,0.0
27/01/2022,05:31:58,-0.001,0.0,0.0,0.0
27/01/2022,05:32:57,-0.001,0.0,0.0,0.0
27/01/2022,05:33:57,-0.002,0.0,0.0,0.0
27/01/2022,05:34:58,-0.001,0.0,0.0,0.0
27/01/2022,05:35:57,-0.002,0.0,0.0,0.0
27/01/2022,05:37:06,-0.001,0.0,0.0,0.0
27/01/2022,05:37:57,-0.000,0.0,0.0,0.0
27/01/2022,05:38:58,-0.001,0.0,0.0,0.0
27/01/2022,05:39:50,-0.001,0.0,0.0,0.0
27/01/2022,05:40:57,-0.001,0.0,0.0,0.0
27/01/2022,05:41:57,-0.000,0.0,0.0,0.0
27/01/2022,05:42:58,-0.000,0.0,0.0,0.0
27/01/2022,05:43:57,-0.001,0.0,0.0,0.0
27/01/2022,05:44:57,-0.001,0.0,0.0,0.0
27/01/2022,05:45:57,-0.001,0.0,0.0,0.0
27/01/2022,05:47:06,-0.001,0.0,0.0,0.0
27/01/2022,05:48:06,-0.001,0.0,0.0,0.0
27/01/2022,05:48:58,-0.000,0.0,0.0,0.0
27/01/2022,05:49:57,-0.002,0.0,0.0,0.0
27/01/2022,05:50:57,-0.002,0.0,0.0,0.0
27/01/2022,05:51:57,-0.001,0.0,0.0,0.0
27/01/2022,05:52:57,-0.001,0.0,0.0,0.0
27/01/2022,05:53:57,-0.001,0.0,0.0,0.0
27/01/2022,05:55:05,-0.002,0.0,0.0,0.0
27/01/2022,05:55:57,-0.001,0.0,0.0,0.0
27/01/2022,05:56:57,-0.000,0.0,0.0,0.0
27/01/2022,05:57:57,-0.001,0.0,0.0,0.0
27/01/2022,05:59:15,-0.001,0.0,0.0,0.0
27/01/2022,06:00:58,-0.001,0.0,0.0,0.0
27/01/2022,06:01:57,-0.000,0.0,0.0,0.0
27/01/2022,06:02:57,-0.001,0.0,0.0,0.0
27/01/2022,06:03:57,-0.001,0.0,0.0,0.0
27/01/2022,06:04:57,-0.001,0.0,0.0,0.0
27/01/2022,06:05:57,-0.001,0.0,0.0,0.0
27/01/2022,06:06:57,-0.001,0.0,0.0,0.0
27/01/2022,06:07:57,-0.000,0.0,0.0,0.0
27/01/2022,06:08:57,-0.000,0.0,0.0,0.0
27/01/2022,06:09:57,-0.001,0.0,0.0,0.0
27/01/2022,06:10:57,-0.001,0.0,0.0,0.0
27/01/2022,06:11:57,-0.001,0.0,0.0,0.0
27/01/2022,06:12:58,-0.001,0.0,0.0,0.0
27/01/2022,06:13:57,-0.001,0.0,0.0,0.0
27/01/2022,06:14:57,-0.001,0.0,0.0,0.0
27/01/2022,06:15:58,-0.002,0.0,0.0,0.0
27/01/2022,06:16:58,-0.001,0.0,0.0,0.0
27/01/2022,06:17:59,-0.001,0.0,0.0,0.0
27/01/2022,06:19:06,-0.001,0.0,0.0,0.0
27/01/2022,06:19:56,-0.001,0.0,0.0,0.0
27/01/2022,06:20:58,-0.001,0.0,0.0,0.0
27/01/2022,06:21:57,-0.001,0.0,0.0,0.0
27/01/2022,06:22:58,-0.001,0.0,0.0,0.0
27/01/2022,06:23:57,-0.001,0.0,0.0,0.0
27/01/2022,06:24:57,-0.001,0.0,0.0,0.0
27/01/2022,06:25:57,-0.000,0.0,0.0,0.0
27/01/2022,06:26:57,-0.001,0.0,0.0,0.0
27/01/2022,06:27:58,-0.000,0.0,0.0,0.0
27/01/2022,06:28:57,-0.001,0.0,0.0,0.0
27/01/2022,06:29:58,-0.001,0.0,0.0,0.0
27/01/2022,06:30:58,-0.001,0.0,0.0,0.0
27/01/2022,06:31:59,-0.001,0.0,0.0,0.0
27/01/2022,06:33:05,-0.001,0.0,0.0,0.0
27/01/2022,06:33:57,-0.001,0.0,0.0,0.0
27/01/2022,06:34:57,-0.001,0.0,0.0,0.0
27/01/2022,06:35:58,-0.001,0.0,0.0,0.0
27/01/2022,06:36:57,-0.001,0.0,0.0,0.0
27/01/2022,06:37:57,-0.001,0.0,0.0,0.0
27/01/2022,06:38:57,-0.001,0.0,0.0,0.0
27/01/2022,06:40:06,-0.001,0.0,0.0,0.0
27/01/2022,06:40:58,-0.001,0.0,0.0,0.0
27/01/2022,06:41:58,-0.002,0.0,0.0,0.0
27/01/2022,06:43:06,-0.000,0.0,0.0,0.0
27/01/2022,06:43:56,-0.002,0.0,0.0,0.0
27/01/2022,06:44:58,-0.001,0.0,0.0,0.0
27/01/2022,06:45:57,-0.001,0.0,0.0,0.0
27/01/2022,06:46:58,-0.002,0.0,0.0,0.0
27/01/2022,06:47:57,-0.001,0.0,0.0,0.0
27/01/2022,06:48:57,-0.002,0.0,0.0,0.0
27/01/2022,06:49:57,-0.001,0.0,0.0,0.0
27/01/2022,06:50:58,-0.001,0.0,0.0,0.0
27/01/2022,06:51:59,-0.000,0.0,0.0,0.0
27/01/2022,06:52:57,-0.002,0.0,0.0,0.0
27/01/2022,06:53:57,-0.001,0.0,0.0,0.0
27/01/2022,06:54:58,-0.001,0.0,0.0,0.0
27/01/2022,06:55:57,-0.001,0.0,0.0,0.0
27/01/2022,06:56:58,-0.001,0.0,0.0,0.0
27/01/2022,06:57:57,-0.001,0.0,0.0,0.0
27/01/2022,06:58:57,-0.001,0.0,0.0,0.0
27/01/2022,06:59:57,-0.001,0.0,0.0,0.0
27/01/2022,07:01:05,-0.001,0.0,0.0,0.0
27/01/2022,07:01:57,-0.001,0.0,0.0,0.0
27/01/2022,07:02:58,-0.001,0.0,0.0,0.0
27/01/2022,07:04:06,-0.001,0.0,0.0,0.0
27/01/2022,07:04:57,-0.001,0.0,0.0,0.0
27/01/2022,07:05:57,-0.001,0.0,0.0,0.0
27/01/2022,07:06:59,-0.001,0.0,0.0,0.0
27/01/2022,07:07:59,-0.000,0.0,0.0,0.0
27/01/2022,07:08:57,-0.001,0.0,0.0,0.0
27/01/2022,07:09:57,-0.001,0.0,0.0,0.0
27/01/2022,07:10:57,-0.000,0.0,0.0,0.0
27/01/2022,07:11:58,-0.001,0.0,0.0,0.0
27/01/2022,07:12:58,-0.001,0.0,0.0,0.0
27/01/2022,07:14:06,-0.002,0.0,0.0,0.0
27/01/2022,07:14:56,-0.001,0.0,0.0,0.0
27/01/2022,07:15:57,-0.002,0.0,0.0,0.0
27/01/2022,07:16:58,-0.001,0.0,0.0,0.0
27/01/2022,07:17:57,-0.001,0.0,0.0,0.0
27/01/2022,07:18:57,-0.001,0.0,0.0,0.0
27/01/2022,07:19:57,-0.001,0.0,0.0,0.0
27/01/2022,07:20:57,-0.001,0.0,0.0,0.0
27/01/2022,07:21:57,-0.000,0.0,0.0,0.0
27/01/2022,07:22:58,-0.001,0.0,0.0,0.0
27/01/2022,07:23:58,-0.001,0.0,0.0,0.0
27/01/2022,07:25:05,-0.001,0.0,0.0,0.0
27/01/2022,07:25:57,-0.000,0.0,0.0,0.0
27/01/2022,07:26:57,-0.000,0.0,0.0,0.0
27/01/2022,07:27:58,-0.002,0.0,0.0,0.0
27/01/2022,07:28:59,-0.002,0.0,0.0,0.0
27/01/2022,07:30:13,-0.001,0.0,0.0,0.0
27/01/2022,07:31:58,-0.001,0.0,0.0,0.0
27/01/2022,07:32:57,-0.002,0.0,0.0,0.0
27/01/2022,07:33:57,-0.001,0.0,0.0,0.0
27/01/2022,07:35:05,-0.001,0.0,0.0,0.0
27/01/2022,07:36:07,-0.001,0.0,0.0,0.0
27/01/2022,07:36:56,-0.001,0.0,0.0,0.0
27/01/2022,07:37:57,-0.001,0.0,0.0,0.0
27/01/2022,07:39:00,-0.001,0.0,0.0,0.0
27/01/2022,07:39:57,-0.000,0.0,0.0,0.0
27/01/2022,07:40:57,-0.001,0.0,0.0,0.0
27/01/2022,07:41:58,-0.001,0.0,0.0,0.0
27/01/2022,07:45:08,-0.002,0.0,0.0,0.0
27/01/2022,07:45:57,-0.001,0.0,0.0,0.0
27/01/2022,07:46:57,-0.001,0.0,0.0,0.0
27/01/2022,07:48:58,-0.001,0.0,0.0,0.0
27/01/2022,07:49:58,-0.001,0.0,0.0,0.0
27/01/2022,07:50:58,-0.000,0.0,0.0,0.0
27/01/2022,07:51:57,-0.000,0.0,0.0,0.0
27/01/2022,07:52:58,-0.001,0.0,0.0,0.0
27/01/2022,07:53:57,-0.000,0.0,0.0,0.0
27/01/2022,07:54:57,-0.000,0.0,0.0,0.0
27/01/2022,07:55:58,0.001,0.0,0.0,0.0
27/01/2022,07:57:07,-0.000,0.0,0.0,0.0
27/01/2022,07:57:56,0.001,0.0,0.0,0.0
27/01/2022,07:58:57,-0.000,0.0,0.0,0.0
27/01/2022,07:59:58,0.000,0.0,0.0,0.0
27/01/2022,08:00:59,0.000,0.0,0.0,0.0
27/01/2022,08:01:57,0.000,0.0,0.0,0.0
27/01/2022,08:02:58,0.001,0.0,0.0,0.0
27/01/2022,08:03:59,0.001,0.0,0.0,0.0
27/01/2022,08:04:57,0.001,0.0,0.0,0.0
27/01/2022,08:05:57,0.000,0.0,0.0,0.0
27/01/2022,08:07:06,0.001,0.0,0.0,0.0
27/01/2022,08:07:58,0.001,0.0,0.0,0.0
27/01/2022,08:08:58,0.002,0.0,0.0,0.0
27/01/2022,08:09:59,0.002,0.0,0.0,0.0
27/01/2022,08:10:58,0.002,0.0,0.0,0.0
27/01/2022,08:11:58,0.002,0.0,0.0,0.0
27/01/2022,08:12:57,0.002,0.0,0.0,0.0
27/01/2022,08:13:58,0.002,0.0,0.0,0.0
27/01/2022,08:14:58,0.001,0.0,0.0,0.0
27/01/2022,08:15:58,0.002,0.0,0.0,0.0
27/01/2022,08:16:57,0.003,0.0,0.0,0.0
27/01/2022,08:17:57,0.003,0.0,0.0,0.0
27/01/2022,08:19:06,0.002,0.0,0.0,0.0
27/01/2022,08:19:57,0.003,0.0,0.0,0.0
27/01/2022,08:20:58,0.002,0.0,0.0,0.0
27/01/2022,08:21:58,0.003,0.0,0.0,0.0
27/01/2022,08:22:58,0.004,0.0,0.0,0.0
27/01/2022,08:23:57,0.003,0.0,0.0,0.0
27/01/2022,08:24:57,0.003,0.0,0.0,0.0
27/01/2022,08:25:58,0.004,0.0,0.0,0.0
27/01/2022,08:26:58,0.005,0.0,0.0,0.0
27/01/2022,08:27:58,0.004,0.0,0.0,0.0
27/01/2022,08:29:11,0.005,0.0,0.0,0.0
27/01/2022,08:30:59,0.004,0.0,0.0,0.0
27/01/2022,08:31:57,0.004,0.0,0.0,0.0
27/01/2022,08:32:57,0.004,0.0,0.0,0.0
27/01/2022,08:33:58,0.005,0.0,0.0,0.0
27/01/2022,08:34:58,0.004,0.0,0.0,0.0
27/01/2022,08:35:57,0.004,0.0,0.0,0.0
27/01/2022,08:36:57,0.004,0.0,0.0,0.0
27/01/2022,08:37:58,0.004,0.0,0.0,0.0
27/01/2022,08:38:57,0.006,0.0,0.0,0.0
27/01/2022,08:39:58,0.005,0.0,0.0,0.0
27/01/2022,08:41:06,0.004,0.0,0.0,0.0
27/01/2022,08:41:57,0.004,0.0,0.0,0.0
27/01/2022,08:42:57,0.005,0.0,0.0,0.0
27/01/2022,08:43:58,0.005,0.0,0.0,0.0
27/01/2022,08:44:57,0.005,0.0,0.0,0.0
27/01/2022,08:45:57,0.005,0.0,0.0,0.0
27/01/2022,08:46:57,0.005,0.0,0.0,0.0
27/01/2022,08:47:58,0.007,0.0,0.0,0.0
27/01/2022,08:49:06,0.007,0.0,0.0,0.0
27/01/2022,08:49:56,0.007,0.0,0.0,0.0
27/01/2022,08:50:58,0.007,0.0,0.0,0.0
27/01/2022,08:52:06,0.007,0.0,0.0,0.0
27/01/2022,08:52:56,0.008,0.0,0.001,0.001
27/01/2022,08:53:58,0.008,0.0,0.001,0.0
27/01/2022,08:55:06,0.008,0.0,0.001,0.0
27/01/2022,08:55:57,0.008,0.0,0.001,0.0
27/01/2022,08:56:57,0.009,0.0,0.001,0.0
27/01/2022,08:57:58,0.010,0.0,0.001,0.0
27/01/2022,08:58:57,0.008,0.0,0.001,0.0
27/01/2022,08:59:57,0.009,0.0,0.002,0.001
27/01/2022,09:00:59,0.010,0.0,0.002,0.0
27/01/2022,09:01:58,0.012,0.0,0.002,0.0
27/01/2022,09:02:58,0.012,0.0,0.002,0.0
27/01/2022,09:03:57,0.013,0.0,0.002,0.0
27/01/2022,09:04:57,0.014,0.0,0.003,0.001
27/01/2022,09:05:57,0.012,0.0,0.003,0.0
27/01/2022,09:06:58,0.015,0.0,0.003,0.0
27/01/2022,09:07:58,0.017,0.0,0.003,0.0
27/01/2022,09:08:58,0.017,0.0,0.004,0.001
27/01/2022,09:09:58,0.017,0.0,0.004,0.0
27/01/2022,09:10:57,0.015,0.0,0.004,0.0
27/01/2022,09:11:58,0.014,0.0,0.004,0.0
27/01/2022,09:13:07,0.016,0.0,0.005,0.001
27/01/2022,09:13:57,0.017,0.0,0.005,0.0
27/01/2022,09:14:58,0.017,0.0,0.005,0.0
27/01/2022,09:15:57,0.016,0.0,0.005,0.0
27/01/2022,09:16:58,0.016,0.0,0.006,0.001
27/01/2022,09:17:58,0.016,0.0,0.006,0.0
27/01/2022,09:18:57,0.016,0.0,0.006,0.0
27/01/2022,09:19:58,0.017,0.0,0.007,0.001
27/01/2022,09:20:57,0.017,0.0,0.007,0.0
27/01/2022,09:21:57,0.018,0.0,0.007,0.0
27/01/2022,09:23:06,0.017,0.0,0.007,0.0
27/01/2022,09:23:57,0.020,0.0,0.008,0.001
27/01/2022,09:24:58,0.021,0.0,0.008,0.0
27/01/2022,09:25:57,0.021,0.0,0.008,0.0
27/01/2022,09:26:58,0.021,0.0,0.009,0.001
27/01/2022,09:28:00,0.023,0.0,0.009,-0.0
27/01/2022,09:29:00,0.022,0.0,0.01,0.001
27/01/2022,09:29:59,0.024,0.0,0.01,0.0
27/01/2022,09:30:57,0.024,0.0,0.01,0.0
27/01/2022,09:31:57,0.026,0.0,0.011,0.001
27/01/2022,09:32:58,0.026,0.0,0.011,-0.0
27/01/2022,09:33:59,0.024,0.0,0.012,0.001
27/01/2022,09:34:58,0.026,0.0,0.012,0.0
27/01/2022,09:35:58,0.024,0.0,0.012,0.0
27/01/2022,09:37:06,0.022,0.0,0.013,0.001
27/01/2022,09:37:56,0.023,0.0,0.013,-0.0
27/01/2022,09:38:57,0.022,0.0,0.014,0.001
27/01/2022,09:39:57,0.024,0.0,0.014,0.0
27/01/2022,09:40:58,0.028,0.0,0.014,0.0
27/01/2022,09:41:58,0.027,0.0,0.015,0.001
27/01/2022,09:42:58,0.024,0.0,0.015,0.0
27/01/2022,09:43:58,0.025,0.0,0.016,0.001
27/01/2022,09:44:59,0.027,0.0,0.016,0.0
27/01/2022,09:45:58,0.029,0.0,0.017,0.001
27/01/2022,09:47:06,0.031,0.0,0.017,0.0
27/01/2022,09:47:58,0.033,0.0,0.018,0.001
27/01/2022,09:48:58,0.031,0.0,0.018,-0.0
27/01/2022,09:49:57,0.030,0.0,0.019,0.001
27/01/2022,09:50:58,0.034,0.0,0.019,0.0
27/01/2022,09:51:57,0.039,0.0,0.02,0.001
27/01/2022,09:52:58,0.042,0.0,0.02,0.0
27/01/2022,09:53:58,0.041,0.0,0.021,0.001
27/01/2022,09:55:06,0.039,0.0,0.022,0.001
27/01/2022,09:55:57,0.039,0.0,0.022,-0.0
27/01/2022,09:56:58,0.042,0.0,0.023,0.001
27/01/2022,09:58:06,0.047,0.0,0.024,0.001
27/01/2022,09:58:57,0.052,0.0,0.025,0.001
27/01/2022,09:59:57,0.056,0.0,0.026,0.001
27/01/2022,10:00:58,0.054,0.0,0.027,0.001
27/01/2022,10:01:58,0.052,0.0,0.027,-0.0
27/01/2022,10:02:59,0.053,0.0,0.028,0.001
27/01/2022,10:04:58,0.060,0.0,0.03,0.002
27/01/2022,10:05:57,0.067,0.0,0.031,0.001
27/01/2022,10:06:58,0.067,0.0,0.032,0.001
27/01/2022,10:08:31,0.073,0.0,0.034,0.002
27/01/2022,10:10:06,0.072,0.0,0.036,0.002
27/01/2022,10:10:57,0.070,0.0,0.037,0.001
27/01/2022,10:11:57,0.071,0.0,0.038,0.001
27/01/2022,10:12:58,0.074,0.0,0.04,0.002
27/01/2022,10:13:57,0.078,0.0,0.041,0.001
27/01/2022,10:14:58,0.080,0.0,0.042,0.001
27/01/2022,10:15:59,0.082,0.0,0.043,0.001
27/01/2022,10:16:58,0.081,0.0,0.045,0.002
27/01/2022,10:17:58,0.081,0.0,0.046,0.001
27/01/2022,10:19:06,0.080,0.0,0.048,0.002
27/01/2022,10:19:56,0.078,0.0,0.049,0.001
27/01/2022,10:20:58,0.073,0.0,0.05,0.001
27/01/2022,10:21:58,0.069,0.0,0.051,0.001
27/01/2022,10:22:57,0.069,0.0,0.052,0.001
27/01/2022,10:23:58,0.069,0.0,0.054,0.002
27/01/2022,10:24:58,0.073,0.0,0.055,0.001
27/01/2022,10:25:58,0.081,0.0,0.056,0.001
27/01/2022,10:26:58,0.085,0.0,0.057,0.001